Weather History for KHEZ - January, 2013

Change the Weather History Date:

Thursday, January 10, 2013

  Actual Average Record
Temperature  
Mean Temperature 63 °F -  
Max Temperature 66 °F 56 °F 78 °F (1974)
Min Temperature 60 °F 36 °F 10 °F (1962)
Degree Days  
Heating Degree Days 2    
Growing Degree Days 13 (Base 50)    
Moisture  
Dew Point 63 °F    
Average Humidity 93    
Maximum Humidity 100    
Minimum Humidity 88    
Precipitation  
Precipitation 3.98 in - - ()
Sea Level Pressure  
Sea Level Pressure 30.05 in    
Wind  
Wind Speed 9 mph (SE)    
Max Wind Speed 18 mph    
Max Gust Speed 34 mph    
Visibility 8 miles    
Events Thunderstorm    
Averages and records for this station are not official NWS values.
T = Trace of Precipitation, MM = Missing Value Source: NWS Daily Summary

Daily Weather History Graph

Daily Weather History Graph

Search for Another Location

Airport or City:

Trip Planner

Search our weather history database for the weather conditions in past years. The results will help you decide how hot, cold, wet, or windy it might be!

Date:

Astronomy

Jan. 10, 2013 Rise Set
Actual Time 7:05 AM CST 5:20 PM CST
Civil Twilight 6:39 AM CST 5:46 PM CST
Nautical Twilight 6:09 AM CST 6:16 PM CST
Astronomical Twilight 5:39 AM CST 6:46 PM CST
Moon 5:46 AM CST (1/10) 4:27 PM CST (1/10)
Length of Visible Light 11h 07m
Length of Day
10h 14m
Waning Crescent, 2% of the Moon is Illuminated
Jan 10
Waning Crescent
Jan 11
New
Jan 18
First Quarter
Jan 26
Full
Feb 3
Last Quarter

Hourly Weather History & Observations

Time (CST) Temp. Dew Point Humidity Pressure Visibility Wind Dir Wind Speed Gust Speed Precip Events Conditions
12:15 AM 66.2 °F 66.2 °F 100% 30.14 in 7.0 mi ESE 4.6 mph - 0.02 in   Overcast
12:35 AM 66.2 °F 64.4 °F 94% 30.13 in 9.0 mi ESE 5.8 mph - 0.03 in   Overcast
12:55 AM 66.2 °F 66.2 °F 100% 30.12 in 6.0 mi East 5.8 mph - 0.08 in Thunderstorm Overcast
1:15 AM 66.2 °F 64.4 °F 94% 30.11 in 7.0 mi East 6.9 mph - 0.06 in Thunderstorm Thunderstorm
1:35 AM 66.2 °F 64.4 °F 94% 30.10 in 7.0 mi East 9.2 mph - 0.12 in Thunderstorm Overcast
1:55 AM 66.2 °F 64.4 °F 94% 30.10 in 10.0 mi ESE 10.4 mph - 0.18 in Thunderstorm Thunderstorm
2:15 AM 64.4 °F 64.4 °F 100% 30.12 in 3.0 mi West 3.5 mph 24.2 mph 0.65 in Thunderstorm Thunderstorm
2:35 AM 66.2 °F 64.4 °F 94% 30.11 in 8.0 mi NW 11.5 mph - 0.89 in Thunderstorm Thunderstorm
2:55 AM 64.4 °F 64.4 °F 100% 30.11 in 8.0 mi NE 3.5 mph - 1.15 in   Mostly Cloudy
3:15 AM 64.4 °F 64.4 °F 100% 30.11 in 5.0 mi NNE 4.6 mph - 0.17 in   Overcast
3:35 AM 64.4 °F 64.4 °F 100% 30.10 in 9.0 mi NE 6.9 mph - 0.24 in   Overcast
3:55 AM 64.4 °F 64.4 °F 100% 30.09 in 8.0 mi North 5.8 mph - 0.29 in   Overcast
4:15 AM 64.4 °F 64.4 °F 100% 30.09 in 5.0 mi NE 8.1 mph - 0.07 in   Overcast
4:35 AM 64.4 °F 64.4 °F 100% 30.08 in 10.0 mi NNE 11.5 mph - 0.08 in   Overcast
4:55 AM 64.4 °F 64.4 °F 100% 30.07 in 10.0 mi NNE 8.1 mph - 0.10 in   Overcast
5:15 AM 64.4 °F 64.4 °F 100% 30.06 in 10.0 mi NNE 10.4 mph - 0.03 in Thunderstorm Overcast
5:35 AM 64.4 °F 64.4 °F 100% 30.06 in 10.0 mi NNE 9.2 mph - 0.07 in Thunderstorm Thunderstorm
5:55 AM 64.4 °F 64.4 °F 100% 30.07 in 10.0 mi NNE 9.2 mph - 0.09 in   Overcast
6:35 AM 64.4 °F 64.4 °F 100% 30.08 in 9.0 mi NE 4.6 mph - 0.15 in   Overcast
6:55 AM 64.4 °F 62.6 °F 94% 30.08 in 10.0 mi NW 5.8 mph - 0.21 in Thunderstorm Overcast
7:15 AM 64.4 °F 64.4 °F 100% 30.09 in 10.0 mi NW 17.3 mph 20.7 mph 0.07 in Thunderstorm Thunderstorm
7:35 AM 62.6 °F 60.8 °F 94% 30.18 in 3.0 mi WSW 18.4 mph 34.5 mph 0.50 in Thunderstorm Thunderstorm
7:55 AM 62.6 °F 60.8 °F 94% 30.11 in 10.0 mi North 9.2 mph 25.3 mph 0.82 in Thunderstorm Mostly Cloudy
8:15 AM 62.6 °F 60.8 °F 94% 30.09 in 10.0 mi North 10.4 mph - 0.04 in Thunderstorm Mostly Cloudy
8:35 AM 62.6 °F 60.8 °F 94% 30.14 in 9.0 mi NE 4.6 mph - 0.09 in Thunderstorm Thunderstorm
8:55 AM 62.6 °F 60.8 °F 94% 30.16 in 8.0 mi South 4.6 mph - 0.17 in   Overcast
9:15 AM 60.8 °F 59.0 °F 94% 30.17 in 8.0 mi NNW 3.5 mph - 0.09 in   Overcast
9:35 AM 60.8 °F 60.8 °F 100% 30.16 in 9.0 mi ENE 6.9 mph - 0.17 in   Overcast
9:55 AM 62.6 °F 60.8 °F 94% 30.14 in 5.0 mi NE 10.4 mph - 0.30 in   Overcast
10:15 AM 62.6 °F 60.8 °F 94% 30.12 in 10.0 mi NE 12.7 mph - 0.08 in   Overcast
10:35 AM 62.6 °F 60.8 °F 94% 30.14 in 3.0 mi NNW 3.5 mph - 0.24 in   Mostly Cloudy
10:55 AM 62.6 °F 60.8 °F 94% 30.11 in 5.0 mi East 11.5 mph - 0.40 in   Overcast
11:15 AM 64.4 °F 60.8 °F 88% 30.03 in 10.0 mi ENE 18.4 mph 23.0 mph 0.11 in   Overcast
11:35 AM 66.2 °F 62.6 °F 88% 30.03 in 10.0 mi East 13.8 mph 19.6 mph 0.13 in   Overcast
11:55 AM 66.2 °F 62.6 °F 88% 30.04 in 10.0 mi ESE 13.8 mph 27.6 mph 0.15 in Thunderstorm Mostly Cloudy
12:15 PM 66.2 °F 62.6 °F 88% 30.00 in 10.0 mi East 12.7 mph 21.9 mph 0.02 in   Mostly Cloudy
12:36 PM 66.2 °F 64.4 °F 94% 29.99 in 10.0 mi SSE 16.1 mph 26.5 mph 0.03 in   Scattered Clouds
12:55 PM 66.2 °F 62.6 °F 88% 29.98 in 10.0 mi ESE 12.7 mph 20.7 mph 0.03 in   Clear
1:15 PM 66.2 °F 62.6 °F 88% 29.96 in 10.0 mi ESE 12.7 mph 19.6 mph N/A   Partly Cloudy
1:35 PM 66.2 °F 62.6 °F 88% 29.99 in 10.0 mi South 10.4 mph - N/A   Mostly Cloudy
1:55 PM 66.2 °F 62.6 °F 88% 29.99 in 10.0 mi South 9.2 mph 17.3 mph N/A   Overcast
2:15 PM 66.2 °F 62.6 °F 88% 29.99 in 10.0 mi South 9.2 mph 17.3 mph N/A   Overcast
2:35 PM 66.2 °F 62.6 °F 88% 29.99 in 10.0 mi South 8.1 mph - N/A   Overcast
2:55 PM 66.2 °F 62.6 °F 88% 30.00 in 10.0 mi South 11.5 mph - N/A   Overcast
3:15 PM 66.2 °F 62.6 °F 88% 30.00 in 10.0 mi SSW 15.0 mph - N/A   Overcast
3:55 PM 66.2 °F 62.6 °F 88% 30.00 in 10.0 mi South 13.8 mph 18.4 mph N/A   Overcast
4:15 PM 66.2 °F 62.6 °F 88% 29.99 in 10.0 mi South 13.8 mph - N/A   Overcast
4:35 PM 66.2 °F 62.6 °F 88% 30.00 in 10.0 mi South 15.0 mph - N/A   Overcast
4:55 PM 64.4 °F 62.6 °F 94% 30.00 in 10.0 mi South 11.5 mph - N/A   Overcast
5:15 PM 66.2 °F 62.6 °F 88% 29.99 in 10.0 mi South 12.7 mph - N/A   Overcast
5:35 PM 64.4 °F 62.6 °F 94% 29.99 in 10.0 mi South 10.4 mph - N/A   Overcast
5:55 PM 66.2 °F 62.6 °F 88% 29.98 in 10.0 mi South 6.9 mph - N/A   Overcast
6:15 PM 66.2 °F 62.6 °F 88% 29.98 in 10.0 mi South 11.5 mph - N/A   Overcast
6:35 PM 64.4 °F 62.6 °F 94% 29.98 in 10.0 mi South 10.4 mph - N/A   Overcast
6:55 PM 66.2 °F 62.6 °F 88% 29.98 in 10.0 mi South 11.5 mph - N/A   Overcast
7:15 PM 66.2 °F 62.6 °F 88% 29.98 in 10.0 mi South 11.5 mph 17.3 mph N/A   Overcast
7:35 PM 66.2 °F 62.6 °F 88% 29.99 in 10.0 mi South 10.4 mph - N/A   Overcast
7:55 PM 66.2 °F 62.6 °F 88% 29.99 in 10.0 mi South 9.2 mph 16.1 mph N/A   Overcast
8:15 PM 66.2 °F 62.6 °F 88% 30.00 in 10.0 mi South 10.4 mph - N/A   Overcast
8:35 PM 66.2 °F 62.6 °F 88% 30.00 in 10.0 mi South 8.1 mph - N/A   Overcast
8:55 PM 66.2 °F 62.6 °F 88% 30.01 in 10.0 mi SSW 6.9 mph - N/A   Overcast
9:15 PM 64.4 °F 62.6 °F 94% 30.02 in 9.0 mi South 6.9 mph - N/A   Overcast
9:35 PM 66.2 °F 62.6 °F 88% 30.03 in 4.0 mi SSW 6.9 mph - N/A   Overcast
9:55 PM 66.2 °F 62.6 °F 88% 30.03 in 4.0 mi South 9.2 mph - N/A   Overcast
10:15 PM 64.4 °F 62.6 °F 94% 30.04 in 7.0 mi SSW 6.9 mph - 0.01 in   Overcast
10:35 PM 66.2 °F 62.6 °F 88% 30.04 in 4.0 mi SSW 10.4 mph - 0.01 in   Overcast
10:55 PM 66.2 °F 62.6 °F 88% 30.04 in 3.0 mi South 10.4 mph - 0.01 in   Overcast
11:15 PM 66.2 °F 62.6 °F 88% 30.04 in 4.0 mi South 9.2 mph - N/A   Overcast
11:55 PM 66.2 °F 62.6 °F 88% 30.03 in 5.0 mi SSW 6.9 mph - N/A   Overcast